Content
SEND FEEDBACK

Daily
Averages
Monthly
Summary
Germany

LECK, GERMANY


Home > Europe > Germany
Elevation: 24 feet     Latitude: 54 47N     Longitude: 008 56E

WEATHER
 
SELECT A DAY
Number of Records: 40,362;   Date Range: 2/20/97 - 7/27/14
 
SHARE

PRINT THIS DATA

[ ← Previous Day ]
WEATHER ALMANAC - JANUARY 31, 2013
[ Next Day → ]
[ °C ]   °F
Weather ElementAverageHighLow
Temperature40.7 °F42.8 °F (2:20 am)37.4 °F (6:20 pm)
Dewpoint37.5 °F39.2 °F (1:20 pm)35.6 °F (3:20 am)
Humidity88.6 %100 % (3:20 pm)76 % (3:20 am)
Barometer29.44 in29.56 in (10:20 am)29.36 in (2:20 am)
Wind Speed33.2 mph50.6 mph (4:20 am)
Wind Gust69 mph (4:20 am)
Weather ElementAverage
Visibility5.7 mi
Wind DirectionWSW (255.2 °)

Weather ElementTotal
Precipitation---
Heating Degree Days24.9 (Base 65)
Averaged from 23 records on January 31, 2013
WEATHER CONDITIONS BREAKOUT
WIND DIRECTION BREAKOUT
WEATHER BY HOUR - JANUARY 31, 2013
[ °C ]   °F
Local TimeTemperatureDewpointHumidityBarometerVisibilityWind DirectionWind SpeedGust SpeedPrecipitationEventsConditions
1:20 AM41.0 °F37.4 °F87 %29.39 in6.2 miWSW (250°)39.1 mph52.9 mphMostly Cloudy
2:20 AM42.8 °F37.4 °F81 %29.36 in6.2 miWSW (250°)47.2 mph59.8 mphRainLight Rain
3:20 AM42.8 °F35.6 °F76 %29.39 in6.2 miWest (260°)49.5 mph62.1 mphMostly Cloudy
4:20 AM42.8 °F35.6 °F76 %29.42 in6.2 miWest (270°)50.6 mph69.0 mphMostly Cloudy
5:20 AM42.8 °F35.6 °F76 %29.44 in6.2 miWest (260°)44.9 mph58.7 mphMostly Cloudy
6:20 AM42.8 °F37.4 °F81 %29.47 in6.2 miWest (260°)48.3 mph65.6 mphMostly Cloudy
7:20 AM41.0 °F37.4 °F87 %29.50 in6.2 miWest (270°)44.9 mph57.5 mphMostly Cloudy
8:20 AM41.0 °F37.4 °F87 %29.53 in6.2 miWest (260°)39.1 mphMostly Cloudy
9:20 AM41.0 °F35.6 °F81 %29.53 in6.2 miWest (270°)33.4 mphMostly Cloudy
10:20 AM41.0 °F37.4 °F87 %29.56 in6.2 miWSW (250°)32.2 mphMostly Cloudy
11:20 AM41.0 °F37.4 °F87 %29.56 in6.2 miWSW (250°)32.2 mphMostly Cloudy
12:20 PM41.0 °F37.4 °F87 %29.53 in5.0 miWSW (240°)24.2 mph36.8 mphMostly Cloudy
1:20 PM41.0 °F39.2 °F93 %29.47 in4.3 miWSW (240°)25.3 mph38.0 mphRainLight Rain
2:20 PM39.2 °F37.4 °F93 %29.44 in4.3 miWSW (240°)27.6 mphRainRain
3:20 PM39.2 °F39.2 °F100 %29.42 in5.6 miWSW (240°)23.0 mphMostly Cloudy
4:20 PM41.0 °F39.2 °F93 %29.39 in5.6 miWSW (240°)24.2 mphMostly Cloudy
5:20 PM39.2 °F35.6 °F87 %29.39 in4.3 miWSW (250°)32.2 mphRainLight Rain
6:20 PM37.4 °F37.4 °F100 %29.39 in4.3 miWSW (250°)20.7 mphRainLight Rain
7:20 PM39.2 °F37.4 °F93 %29.39 in5.0 miWest (260°)28.8 mph44.9 mphRainLight Rain
8:20 PM41.0 °F39.2 °F93 %29.36 in6.2 miWSW (250°)23.0 mphRainLight Rain
9:20 PM39.2 °F39.2 °F100 %29.36 in6.2 miWest (260°)25.3 mph36.8 mphRainLight Rain
10:20 PM39.2 °F37.4 °F93 %29.39 in6.2 miWest (270°)26.5 mphRainLight Rain
11:20 PM39.2 °F39.2 °F100 %29.42 in6.2 miWest (280°)21.9 mphMostly Cloudy
Hourly data recorded from ETGG, located miles away from Leck, Germany







STORIES FROM OUR PARTNERS